User: anonymous   Login
Location: Darlington Observatory
(36.4817°N, 105.8156°W)
Time: 18:53:02
(UTC-06:00)
Language:

Cosmos 2278 Rocket - Orbit

View from above orbital plane
View from above orbital plane
View from above satellite
View from above satellite

Ground track
Ground track

The orbit data is extracted from the following two-line orbital elements,

1 23088U 94023B   17207.23420901 +.00000250 +00000-0 +15463-3 0  9996
2 23088 070.9980 200.1009 0002443 003.2893 356.8245 14.14655850200796
Epoch (UTC): 26 July 2017 05:37:15
Eccentricity: 0.0002443
inclination: 70.9980°
perigee height: 842 km
apogee height: 845 km
right ascension of ascending node: 200.1009°
argument of perigee: 3.2893°
revolutions per day: 14.14655850
mean anomaly at epoch: 356.8245°
orbit number at epoch: 20079

The dashed part of the orbit path shows where the satellite is in the earth's shadow,  

DLR